Ontario, CA

9:42 AM PDT on March 23, 2017 (GMT -0700)
Ontario International

Weather History for KONT - April, 2013

Change the Weather History Date:

Thursday, April 4, 2013

  Actual Average Record
Temperature  
Mean Temperature 67 °F 60 °F  
Max Temperature 79 °F 72 °F 86 °F (2000)
Min Temperature 54 °F 49 °F 34 °F (1999)
Degree Days  
Heating Degree Days 0 5  
Month to date heating degree days 6 21  
Since 1 July heating degree days 1214 1390  
Cooling Degree Days 2 1  
Month to date cooling degree days 7 3  
Year to date cooling degree days 45 21  
Growing Degree Days 16 (Base 50)    
Moisture  
Dew Point 51 °F    
Average Humidity 62    
Maximum Humidity 93    
Minimum Humidity 31    
Precipitation  
Precipitation 0.00 in 0.04 in 1.22 in (2006)
Month to date precipitation 0.00 0.13  
Year to date precipitation 2.42 9.15  
Since 1 July precipitation 5.19  
Sea Level Pressure  
Sea Level Pressure 30.05 in    
Wind  
Wind Speed 4 mph (WSW)    
Max Wind Speed 15 mph    
Max Gust Speed 21 mph    
Visibility 5 miles    
Events      
T = Trace of Precipitation, MM = Missing Value Source: NWS Daily Summary

Daily Weather History Graph

Daily Weather History Graph

Search for Another Location

Airport or City:

Trip Planner

Search our weather history database for the weather conditions in past years. The results will help you decide how hot, cold, wet, or windy it might be!

Date:

Astronomy

Apr. 04, 2013 Rise Set
Actual Time 6:33 AM PDT 7:13 PM PDT
Civil Twilight 6:07 AM PDT 7:39 PM PDT
Nautical Twilight 5:38 AM PDT 8:08 PM PDT
Astronomical Twilight 5:07 AM PDT 8:39 PM PDT
Moon 2:48 AM PDT (4/4) 1:51 PM PDT (4/4)
Length of Visible Light 13h 31m
Length of Day
12h 40m
Waning Crescent, 32% of the Moon is Illuminated
Apr 4
Waning Crescent
Apr 10
New
Apr 18
First Quarter
Apr 25
Full
May 2
Last Quarter

Hourly Weather History & Observations

Time (PDT) Temp. Dew Point Humidity Pressure Visibility Wind Dir Wind Speed Gust Speed Precip Events Conditions
12:53 AM 55.9 °F 52.0 °F 87% 30.06 in 5.0 mi WSW 3.5 mph - N/A   Mostly Cloudy
1:53 AM 55.9 °F 52.0 °F 87% 30.04 in 3.0 mi Calm Calm - N/A   Mostly Cloudy
2:53 AM 55.0 °F 52.0 °F 89% 30.03 in 2.5 mi Calm Calm - N/A   Scattered Clouds
3:53 AM 55.0 °F 52.0 °F 89% 30.03 in 2.5 mi West 5.8 mph - N/A   Mostly Cloudy
4:53 AM 55.9 °F 53.1 °F 90% 30.03 in 2.0 mi WSW 3.5 mph - N/A   Mostly Cloudy
5:53 AM 55.0 °F 53.1 °F 93% 30.03 in 2.0 mi Calm Calm - N/A   Overcast
6:37 AM 55.4 °F 51.8 °F 88% 30.06 in 1.0 mi Calm Calm - N/A   Overcast
6:45 AM 55.4 °F 51.8 °F 88% 30.06 in 1.0 mi Calm Calm - N/A   Overcast
6:53 AM 55.0 °F 52.0 °F 89% 30.04 in 1.0 mi Calm Calm - N/A   Overcast
7:17 AM 55.4 °F 51.8 °F 88% 30.07 in 1.0 mi Calm Calm - N/A   Overcast
7:53 AM 55.9 °F 52.0 °F 87% 30.07 in 1.0 mi Calm Calm - N/A   Overcast
8:53 AM 57.0 °F 52.0 °F 83% 30.08 in 1.5 mi Calm Calm - N/A   Haze
9:21 AM 57.2 °F 51.8 °F 82% 30.10 in 1.8 mi South 3.5 mph - N/A   Haze
9:32 AM 59.0 °F 51.8 °F 77% 30.10 in 2.0 mi Variable 3.5 mph - N/A   Haze
9:44 AM 60.8 °F 51.8 °F 72% 30.10 in 2.0 mi Calm Calm - N/A   Haze
9:53 AM 60.1 °F 52.0 °F 75% 30.08 in 2.0 mi Variable 4.6 mph - N/A   Haze
10:15 AM 62.6 °F 51.8 °F 68% 30.10 in 2.5 mi SE 4.6 mph - N/A   Haze
10:53 AM 63.0 °F 52.0 °F 67% 30.09 in 2.5 mi Variable 4.6 mph - N/A   Haze
11:18 AM 66.2 °F 51.8 °F 60% 30.10 in 3.0 mi NW 3.5 mph - N/A   Haze
11:53 AM 68.0 °F 50.0 °F 52% 30.07 in 3.0 mi NW 3.5 mph - N/A   Haze
12:53 PM 72.0 °F 46.9 °F 41% 30.04 in 5.0 mi Variable 3.5 mph - N/A   Haze
1:53 PM 77.0 °F 46.0 °F 33% 30.01 in 9.0 mi West 12.7 mph - N/A   Mostly Cloudy
2:53 PM 77.0 °F 44.1 °F 31% 30.00 in 9.0 mi WSW 11.5 mph - N/A   Mostly Cloudy
3:53 PM 77.0 °F 44.1 °F 31% 29.98 in 10.0 mi West 13.8 mph 19.6 mph N/A   Overcast
4:53 PM 75.9 °F 46.9 °F 36% 29.97 in 10.0 mi SW 12.7 mph 20.7 mph N/A   Scattered Clouds
5:53 PM 73.9 °F 51.1 °F 45% 29.97 in 10.0 mi SW 15.0 mph - N/A   Scattered Clouds
6:53 PM 70.0 °F 51.1 °F 51% 29.98 in 10.0 mi SW 11.5 mph - N/A   Scattered Clouds
7:53 PM 64.9 °F 50.0 °F 58% 30.00 in 10.0 mi West 9.2 mph - N/A   Scattered Clouds
8:53 PM 62.1 °F 51.1 °F 67% 30.03 in 10.0 mi WSW 6.9 mph - N/A   Scattered Clouds
9:53 PM 60.1 °F 51.1 °F 72% 30.05 in 10.0 mi West 9.2 mph - N/A   Scattered Clouds
10:46 PM 59.0 °F 51.8 °F 77% 30.07 in 10.0 mi WSW 6.9 mph - N/A   Mostly Cloudy
10:53 PM 59.0 °F 52.0 °F 78% 30.06 in 10.0 mi WSW 6.9 mph - N/A   Mostly Cloudy
11:53 PM 57.0 °F 52.0 °F 83% 30.05 in 10.0 mi West 3.5 mph - N/A   Mostly Cloudy